Weather Roundup
Issued by NWS

Home | Current Version | Previous Version | Graphics & Text | Print | Product List | Glossary Off
Versions: 1 2 3 4 5 6 7 8 9 10 11 12 13 14 15 16 17 18 19 20 21 22 23 24 25 26 27 28 29 30 31 32 33 34 35 36 37 38 39 40 41 42 43 44 45 46 47 48 49 50

726
NZUS93 KARX 200910
HRRWXR

CURRENT HOURLY OBSERVATIONS ACROSS
MUCH OF THE UPPER MISSISSIPPI VALLEY
NATIONAL WEATHER SERVICE LA CROSSE WI
400 AM CDT SUN AUG 20 2017


...SOUTHEAST MINNESOTA...


CITY           SKY/WX    TMP DP  RH WIND       PRES   REMARKS
ROCHESTER      CLOUDY    61  61 100 S8        29.94R
ROCHESTER/MAYO FAIR      64  62  93 SE9       29.93R
WINONA         CLOUDY    61  61 100 CALM      29.94R
AUSTIN         CLOUDY    64  61  88 S6        29.92S
ALBERT LEA     CLOUDY    70  66  88 S3        29.91S
DODGE CENTER   CLOUDY    61  59  94 S8        29.92S
PRESTON        CLOUDY    61  58  91 S7        29.95S
OWATONNA       CLOUDY    66  63  88 S13       29.90S
FARIBAULT      CLOUDY    66  63  88 SE7       29.90R
$$

...ELSEWHERE IN MINNESOTA...


CITY           SKY/WX    TMP DP  RH WIND       PRES   REMARKS
MINNEAPOLIS    CLOUDY    66  61  84 SE6       29.88R
INTNL FALLS    CLEAR     61  58  90 SE5       29.76F
DULUTH         CLEAR     60  59  96 S3        29.86F
RED WING       CLOUDY    66  61  82 S5        29.91R
REDWOOD FALLS  CLOUDY    65  63  93 CALM      29.85R
MANKATO        CLOUDY    67  64  90 S10       29.87
WORTHINGTON    CLOUDY    70  62  76 S13       29.86F
FAIRMONT       CLOUDY    67  64  90 S8        29.87S
$$

...SOUTHWEST WISCONSIN...


CITY           SKY/WX    TMP DP  RH WIND       PRES   REMARKS
LA CROSSE      CLOUDY    65  61  87 SE5       29.95R
PRAIRIE DU CHI CLOUDY    60  58  93 CALM      29.97R
BOSCOBEL       FOG       61  60  97 CALM      29.97R VSB 1/4
LONE ROCK      CLOUDY    57  57 100 CALM      29.98R
PLATTEVILLE    CLEAR     63  62  98 SE6       29.99R
FORT MC COY    CLOUDY    51  51  99 CALM      29.96R
CAMP DOUGLAS   PTCLDY    58  58 100 CALM      29.97R
MAUSTON-NEW LI MOSUNNY   58  57  96 SE3       29.97R
VIROQUA        FAIR      63  61  96 CALM      29.98R
WIS DELLS      CLEAR     60  57  92 S3        29.98R
$$

...ELSEWHERE IN WISCONSIN...


CITY           SKY/WX    TMP DP  RH WIND       PRES   REMARKS
MILWAUKEE      CLEAR     64  58  80 SW3       29.99F
MADISON        CLEAR     60  59  96 CALM      29.99R
GREEN BAY      CLEAR     58  58 100 W3        29.96F FOG
EAU CLAIRE     CLOUDY    59  58  96 CALM      29.92R
BLACK RVR FLS  FOG       52  52 100 CALM      29.95R VSB<1/4
MEDFORD        CLEAR     55  55  97 S5        29.96R
WAUSAU         CLEAR     56  56 100 E5        29.95S
WIS RAPIDS     CLEAR     58  56  93 SW3       29.98R
MARSHFIELD     CLEAR     58  55  90 S6        29.97R
RICE LAKE      CLEAR     59  58  97 CALM      29.94R FOG
$$

...NORTHEAST IOWA...


CITY           SKY/WX    TMP DP  RH WIND       PRES   REMARKS
WATERLOO       CLOUDY    67  62  84 SE10      29.91F
DUBUQUE        CLOUDY    64  59  83 S8        29.98R
DECORAH        CLOUDY    64  61  88 S5        29.96R
MASON CITY     CLOUDY    64  62  93 SE5       29.91F
CHARLES CITY   CLOUDY    64  64 100 SE7       29.94R
OELWEIN        CLOUDY    64  64 100 SE8       29.96S
$$

...ELSEWHERE IN IOWA...


CITY           SKY/WX    TMP DP  RH WIND       PRES   REMARKS
DES MOINES     CLOUDY    73  61  65 E3        29.91F
IOWA CITY      CLOUDY    66  62  87 CALM      29.97R
FORT DODGE     CLOUDY    70  63  78 S6        29.88F
MARSHALLTOWN     N/A     67  65  93 SE6       29.93R
CEDAR RAPIDS   CLOUDY    66  63  90 SE5       29.95R
$$

...NORTHERN ILLINOIS...


CITY           SKY/WX    TMP DP  RH WIND       PRES   REMARKS
CHICAGO-OHARE  CLEAR     64  57  78 CALM      30.00S
CHICAGO-MIDWAY CLEAR     69  58  67 S6        30.00S
MOLINE         CLEAR     63  59  87 E5        29.97R
ROCKFORD       CLEAR     62  58  86 CALM      30.01R
PEORIA         CLEAR     70  64  81 CALM      29.98S
$$

NOTE: "FAIR" INDICATES FEW OR NO CLOUDS BELOW 12,000 FEET WITH NO
SIGNIFICANT WEATHER AND/OR OBSTRUCTIONS TO VISIBILITY. WIND
SPEEDS ARE IN MILES-PER-HOUR.




USA.gov is the U.S. government's official web portal to all federal, state and local government web resources and services.